Location: Melbourne
(37.8170°S, 144.9670°E)
Time: 07:46:17
(UTC+10:00)

Transit 2A - All Passes

Search period start: 03 September 2015 00:00
Search period end: 13 September 2015 00:00
Orbit: 599 x 961 km, 66.7° (Epoch: 01 September)

Date Brightness Start Highest point End Pass type
(mag) Time Alt. Az. Time Alt. Az. Time Alt. Az.
03 Sep - 10:57:41 10° N 11:02:14 48° ENE 11:07:20 10° SE daylight
03 Sep - 12:41:55 10° W 12:45:51 22° SW 12:50:00 10° S daylight
03 Sep - 19:45:21 10° SSW 19:50:59 35° SE 19:56:48 10° ENE visible
03 Sep - 21:28:30 10° SW 21:34:25 42° WNW 21:40:18 10° N visible
04 Sep - 10:24:22 10° N 10:28:31 31° ENE 10:33:09 10° SE daylight
04 Sep - 12:07:20 10° WNW 12:11:43 31° SW 12:16:31 10° S daylight
04 Sep - 19:11:48 10° S 19:16:53 26° SE 19:22:12 10° ENE visible
04 Sep - 20:54:25 10° SW 21:00:38 59° WNW 21:06:52 10° N visible
05 Sep - 09:51:26 10° NNE 09:54:51 20° ENE 09:58:42 10° ESE daylight
05 Sep - 11:33:01 10° NW 11:37:41 44° SW 11:42:53 10° SSE daylight
05 Sep - 18:38:23 10° S 18:42:43 20° SE 18:47:19 10° E visible
05 Sep - 20:20:28 10° SSW 20:26:48 83° WNW 20:33:12 10° NNE visible
05 Sep - 22:06:54 10° W 22:09:25 12° WNW 22:11:29 10° WNW visible
06 Sep - 09:19:11 10° NE 09:21:13 13° ENE 09:23:38 10° ESE daylight
06 Sep - 10:58:55 10° NW 11:03:44 66° WSW 11:09:09 10° SSE daylight
06 Sep - 12:46:48 10° SW 12:48:21 11° SW 12:49:40 10° SSW daylight
06 Sep - 18:05:12 10° S 18:08:29 15° SE 18:12:04 10° ESE daylight
06 Sep - 19:46:37 10° SSW 19:52:56 72° ESE 19:59:19 10° NE visible
06 Sep - 21:31:27 10° WSW 21:35:45 18° WNW 21:39:45 10° NW visible
07 Sep - 10:25:03 10° NNW 10:29:51 83° ENE 10:35:17 10° SSE daylight
07 Sep - 12:11:00 10° WSW 12:14:03 15° SW 12:17:04 10° S daylight
07 Sep - 17:32:39 10° SSE 17:34:10 11° SE 17:36:01 10° SE daylight
07 Sep - 19:12:52 10° SSW 19:18:59 52° ESE 19:25:13 10° NE visible
07 Sep - 20:56:49 10° SW 21:02:03 27° WNW 21:07:07 10° NNW visible
08 Sep - 09:51:24 10° N 09:56:04 54° ENE 10:01:20 10° SE daylight
08 Sep - 11:35:59 10° W 11:39:49 21° SW 11:43:50 10° S daylight
08 Sep - 18:39:10 10° SSW 18:44:59 38° SE 18:50:55 10° ENE visible
08 Sep - 20:22:30 10° SW 20:28:19 38° WNW 20:34:03 10° N visible
09 Sep - 09:18:00 10° N 09:22:21 35° ENE 09:27:12 10° SE daylight
09 Sep - 11:01:19 10° WNW 11:05:40 28° SW 11:10:23 10° S daylight
09 Sep - 18:05:36 10° S 18:10:54 28° SE 18:16:23 10° ENE daylight
09 Sep - 19:48:22 10° SW 19:54:33 54° WNW 20:00:42 10° N visible
10 Sep - 08:44:55 10° NNE 08:48:40 23° ENE 08:52:51 10° SE daylight
10 Sep - 10:26:56 10° NW 10:31:36 40° SW 10:36:47 10° SSE daylight
10 Sep - 17:32:08 10° S 17:36:45 21° SE 17:41:35 10° E daylight
10 Sep - 19:14:23 10° SSW 19:20:44 76° WNW 19:27:05 10° NNE visible
10 Sep - 21:01:55 10° W 21:03:17 10° WNW 21:04:08 10° WNW visible
11 Sep - 08:12:23 10° NE 08:15:01 15° ENE 08:18:03 10° ESE daylight
11 Sep - 09:52:46 10° NW 09:57:37 59° WSW 10:03:04 10° SSE daylight
11 Sep - 11:41:32 10° SW 11:42:21 10° SW 11:42:55 10° SSW daylight
11 Sep - 16:58:51 10° S 17:02:31 16° SE 17:06:28 10° E daylight
11 Sep - 18:40:31 10° SSW 18:46:53 79° ESE 18:53:16 10° NNE visible
11 Sep - 20:25:42 10° WSW 20:29:37 16° WNW 20:33:12 10° NW visible
12 Sep - 09:18:50 10° NNW 09:23:43 87° WSW 09:29:14 10° SSE daylight
12 Sep - 11:05:12 10° WSW 11:08:02 14° SW 11:10:49 10° S daylight
12 Sep - 16:25:59 10° SSE 16:28:13 12° SE 16:30:46 10° ESE daylight
12 Sep - 18:06:43 10° SSW 18:12:57 57° ESE 18:19:14 10° NE daylight
12 Sep - 19:50:55 10° SW 19:55:56 24° WNW 20:00:44 10° NNW visible
